Regional Weather Roundup
Issued by NWS Wilmington, NC

Home | Current Version | Previous Version | Text Only | Print | Product List | Glossary On
Versions: 1 2 3 4 5 6 7 8 9 10 11 12 13 14 15 16 17 18 19 20 21 22 23 24 25 26 27 28 29 30 31 32 33 34 35 36 37 38 39 40 41 42 43 44 45 46 47 48 49 50
000
ASUS42 KILM 011110
RWRILM
RWRILM
REGIONAL HOURLY WEATHER ROUNDUP
NATIONAL WEATHER SERVICE WILMINGTON NC
700 AM EDT MON SEP 01 2014

NOTE: "FAIR" INDICATES FEW OR NO CLOUDS BELOW 12,000 FEET WITH NO
SIGNIFICANT WEATHER AND/OR OBSTRUCTIONS TO VISIBILITY.

...............WFO WILMINGTON COUNTY WARNING AREA...............

......COASTAL NC AND SC COUNTIES......

CITY           SKY/WX    TMP DP  RH WIND       PRES   REMARKS
WILMINGTON     CLEAR     74  73  97 S3        30.11R
SOUTHPORT      CLEAR     76  73  91 CALM      30.12R
N MYRTLE BEACH CLEAR     78  75  90 W3        30.11R
MYRTLE BEACH   CLEAR     77  73  88 CALM      30.11R

......INLAND NC AND SC COUNTIES.......

CITY           SKY/WX    TMP DP  RH WIND       PRES   REMARKS
LUMBERTON      PTCLDY    73  72  96 CALM      30.11R FOG
ELIZABETHTOWN  CLEAR     74  74 100 CALM      30.12R
WHITEVILLE     CLEAR     73  72  95 CALM      30.12R
FLORENCE       CLEAR     73  71  93 CALM      30.12R
DARLINGTON     MOCLDY    72  66  83 CALM      30.13R

....................REST OF NORTH CAROLINA......................

.........EASTERN NC.........

CITY           SKY/WX    TMP DP  RH WIND       PRES   REMARKS
CAPE HATTERAS  CLEAR     79  75  87 W9        30.11R
JACKSONVILLE   MOCLDY    72  70  94 CALM      30.12R VSB 1/4
MOREHEAD CITY  PTCLDY    80  77  90 SW12      30.12R
KENANSVILLE    PTCLDY    72  71  96 CALM      30.13R
NEW BERN       CLEAR     76  73  91 CALM      30.13R
ELIZABETH CITY MOCLDY    77  75  93 SW8       30.10R

.........CENTRAL NC.........

CITY           SKY/WX    TMP DP  RH WIND       PRES   REMARKS
RALEIGH DURHAM MOCLDY    74  71  91 SW6       30.11R
ROCKY MOUNT    CLOUDY    75  73  93 S3        30.10S
ROANOKE RAPIDS NOT AVBL
FAYETTEVILLE   CLEAR     74  73  97 SW5       30.11R
HOFFMAN        MOCLDY    72  71  98 SW1       30.13S

.........WESTERN NC.........

CITY           SKY/WX    TMP DP  RH WIND       PRES   REMARKS
CHARLOTTE      MOCLDY    72  69  90 CALM      30.13R
GREENSBORO     PTCLDY    71  70  96 SW5       30.12R
HICKORY        NOT AVBL
BOONE          NOT AVBL
ASHEVILLE      NOT AVBL

.....................REST OF SOUTH CAROLINA.....................

.........EASTERN SC.........

CITY           SKY/WX    TMP DP  RH WIND       PRES   REMARKS
CHARLESTON     PTCLDY    78  75  90 CALM      30.11R
BEAUFORT MCAS  CLEAR     76  72  87 NW5       30.11R
HILTON HEAD    NOT AVBL

.........CENTRAL SC.........

CITY           SKY/WX    TMP DP  RH WIND       PRES   REMARKS
COLUMBIA       CLEAR     74  70  87 CALM      30.10S
ORANGEBURG     CLEAR     73  70  90 CALM      30.12R
SUMTER SHAW    CLEAR     73  73  97 CALM      30.10R

.........WESTERN SC.........

CITY           SKY/WX    TMP DP  RH WIND       PRES   REMARKS
GREENVILLE     NOT AVBL
ROCK HILL      CLEAR     72  70  93 W6        30.13R
ANDERSON       PTCLDY    69  68  96 CALM      30.14R
CLEMSON        NOT AVBL
GREENWOOD      CLEAR     72  69  90 CALM      30.14R


...................COASTAL AND OFFSHORE REPORTS..................

................LOCAL PIERS AND NC RESERVE................


STATION/POSITION TIME  SKY/WX   TEMP    WIND        PRES    VSBY
                                AIR SEA DIR/SP/G
                 (UTC)          (F)     (DEG/KT/KT) (MB)    (MI)
JOHNY MRCER PIER 1100            79 83  230/  4/  5 1019.2R
NC RESRV MASNBRO 1000            77        CALM     1019.0S
OCEAN CREST PIER 1100            81 84  200/  8/  9 1018.7R
SPRINGMAID  PIER 1100            78 83  230/  3/  3 1019.5S


................COASTAL AND OFFSHORE BUOYS................


STATION/POSITION TIME  SKY/WX   TEMP    WIND        PRES    VSBY
                                AIR SEA DIR/SP/G
                 (UTC)          (F)     (DEG/KT/KT) (MB)    (MI)
DIMNDSHOAL 41025 1100            81     210/ 14/ 17 1019.6R
WVE H/P(F/S)=  4/ 8 WND WVE H/P(F/S)=  3/ 4 SWL H/P/D(F/S/D)=  2/110/ 8

CAPE LOOKOUT     1000            80     230/  7/ 10 1019.4R
ONSLOW BAY 41036 1100            81 82  220/ 10/ 12 1020.3R
WVE H/P(F/S)=  3/ 8 WND WVE H/P(F/S)=  2/ 4 SWL H/P/D(F/S/D)=  2/110/ 8

5 WRITEBCH 41038 1000            77 82  270/  8/ 10   N/A
MASONBORO  41110 1100               82                N/A
WVE H/P(F/S)=  3/ 9 WND WVE H/P(F/S)=  3/ 9

WILM HARBR 41108 1100               83                N/A
WVE H/P(F/S)=  3/ 8 WND WVE H/P(F/S)=  3/ 8

27WRITEBCH 41037 NOT AVBL
FRYING PAN 41013 NOT AVBL
SUNST NRSH 41024 1000            82     250/ 10/ 12 1019.0R
CAPRS NRSH 41029 1000            82     230/  8/ 10   N/A
EDISTO     41004 1100            82 83  250/  6/  8 1019.1R
WVE H/P(F/S)=  3/ 9 WND WVE H/P(F/S)=  2/ 4 SWL H/P/D(F/S/D)=  2/ 9



..........OFFSHORE BUOYS BEYOND 100 NM OFFSHORE...........
.....IN A TRIANGLE---HAT TO BERMUDA TO BAHAMAS TO HAT.....


STATION/POSITION TIME  SKY/WX   TEMP    WIND        PRES    VSBY
                                AIR SEA DIR/SP/G
                 (UTC)          (F)     (DEG/KT/KT) (MB)    (MI)
150E HAT   41001 NOT AVBL
W BERMUDA  41048 1031            78 79  360/  4/  6 1021.5R
WVE H/P(F/S)=  5/10 SWL H/P/D(F/S/D)=  5/ 60/10

ATLANTIC S 41049 1044            84 85   80/ 10/ 12 1020.8R
WVE H/P(F/S)=  4/10 WND WVE H/P(F/S)=  2/ 4 SWL H/P/D(F/S/D)=  5/ 10/10

E BAHAMAS  41046 1045            82 84   80/ 10/ 12 1018.8R
WVE H/P(F/S)=  4/ 8 WND WVE H/P(F/S)=  2/ 5 SWL H/P/D(F/S/D)=  3/ 80/ 8

NE BAHAMAS 41047 1038            81 84   60/  8/ 10 1020.8R
WVE H/P(F/S)=  3/ 8 WND WVE H/P(F/S)=  2/ 4 SWL H/P/D(F/S/D)=  3/110/ 8

120E CANVRL41010 1100            82 84  120/  6/  8 1019.5R
WVE H/P(F/S)=  3/ 8 WND WVE H/P(F/S)=  2/ 4 SWL H/P/D(F/S/D)=  3/100/ 8


END


USA.gov is the U.S. government's official web portal to all federal, state and local government web resources and services.